Stündliche Wetter Kyshchyntsi

Heute, 28 Januar, Donnerstag

Zeit Temperatur Niederschläge Wind Luftdruck Luftfeuchtigkeit
00:00 -5°C° 0.4 mm 6 m/S 734 mmHg 89%
01:00 -5°C° 0.4 mm 6 m/S 733 mmHg 90%
02:00 -5°C° 0.4 mm 6 m/S 733 mmHg 92%
03:00 -5°C° 0.6 mm 6 m/S 732 mmHg 93%
04:00 -5°C° 0.6 mm 6 m/S 732 mmHg 94%
05:00 -5°C° 0.6 mm 6 m/S 732 mmHg 95%
06:00 -6°C° 0.6 mm 7 m/S 732 mmHg 95%
07:00 -6°C° 0.6 mm 7 m/S 732 mmHg 94%
08:00 -6°C° 0.6 mm 7 m/S 731 mmHg 94%
09:00 -4°C° 0.2 mm 7 m/S 731 mmHg 94%
10:00 -4°C° 0.2 mm 7 m/S 731 mmHg 93%
11:00 -4°C° 0.2 mm 7 m/S 731 mmHg 93%
12:00 -4°C° 0.4 mm 7 m/S 731 mmHg 94%
13:00 -4°C° 0.4 mm 7 m/S 731 mmHg 94%
14:00 -4°C° 0.4 mm 7 m/S 730 mmHg 95%
15:00 -4°C° 0.6 mm 7 m/S 730 mmHg 95%
16:00 -4°C° 0.6 mm 6 m/S 730 mmHg 96%
17:00 -4°C° 0.6 mm 6 m/S 730 mmHg 96%
18:00 -4°C° 0.8 mm 6 m/S 730 mmHg 96%
19:00 -4°C° 0.8 mm 6 m/S 730 mmHg 96%
20:00 -5°C° 0.8 mm 6 m/S 730 mmHg 96%
21:00 -5°C° 0.4 mm 6 m/S 730 mmHg 96%
22:00 -5°C° 0.4 mm 6 m/S 730 mmHg 96%
23:00 -5°C° 0.4 mm 6 m/S 730 mmHg 95%

Morgen, 29 Januar, Freitag

Zeit Temperatur Niederschläge Wind Luftdruck Luftfeuchtigkeit
00:00 -5°C° 0.4 mm 6 m/S 730 mmHg 95%
01:00 -6°C° 0.4 mm 6 m/S 730 mmHg 94%
02:00 -6°C° 0.4 mm 6 m/S 730 mmHg 93%
03:00 -7°C° 0.1 mm 5 m/S 729 mmHg 92%
04:00 -8°C° 0.1 mm 4 m/S 729 mmHg 92%
05:00 -9°C° 0.1 mm 4 m/S 729 mmHg 91%
06:00 -9°C° 0 mm 4 m/S 729 mmHg 91%
07:00 -9°C° 0 mm 4 m/S 729 mmHg 91%
08:00 -8°C° 0 mm 5 m/S 729 mmHg 91%
09:00 -8°C° 0.2 mm 6 m/S 729 mmHg 91%
10:00 -6°C° 0.2 mm 6 m/S 729 mmHg 91%
11:00 -6°C° 0.2 mm 7 m/S 730 mmHg 91%
12:00 -4°C° 0.1 mm 7 m/S 729 mmHg 90%
13:00 -4°C° 0.1 mm 7 m/S 729 mmHg 90%
14:00 -3°C° 0.1 mm 7 m/S 729 mmHg 89%
15:00 -4°C° 0.1 mm 6 m/S 729 mmHg 86%
16:00 -5°C° 0.1 mm 5 m/S 729 mmHg 84%
17:00 -5°C° 0.1 mm 4 m/S 729 mmHg 81%
18:00 -5°C° 0 mm 4 m/S 730 mmHg 84%
19:00 -7°C° 0 mm 4 m/S 730 mmHg 86%
20:00 -8°C° 0 mm 4 m/S 730 mmHg 88%
21:00 -8°C° 0 mm 4 m/S 730 mmHg 89%
22:00 -8°C° 0 mm 3 m/S 731 mmHg 90%
23:00 -8°C° 0 mm 3 m/S 731 mmHg 90%

übermorgen, 30 Januar, Samstag

Zeit Temperatur Niederschläge Wind Luftdruck Luftfeuchtigkeit
00:00 -8°C° 0 mm 3 m/S 731 mmHg 91%
01:00 -9°C° 0 mm 3 m/S 731 mmHg 92%
02:00 -9°C° 0 mm 3 m/S 731 mmHg 92%
03:00 -9°C° 0 mm 3 m/S 731 mmHg 91%
04:00 -9°C° 0 mm 3 m/S 731 mmHg 91%
05:00 -8°C° 0 mm 2 m/S 731 mmHg 90%
06:00 -8°C° 0.1 mm 3 m/S 730 mmHg 91%
07:00 -7°C° 0.1 mm 3 m/S 730 mmHg 92%
08:00 -7°C° 0.1 mm 3 m/S 729 mmHg 93%
09:00 -7°C° 0.8 mm 4 m/S 729 mmHg 94%
10:00 -5°C° 0.8 mm 6 m/S 729 mmHg 95%
11:00 -4°C° 0.8 mm 7 m/S 728 mmHg 96%
12:00 -3°C° 0.7 mm 6 m/S 728 mmHg 97%
13:00 -3°C° 0.7 mm 6 m/S 727 mmHg 98%
14:00 -1°C° 0.7 mm 5 m/S 726 mmHg 99%
15:00 -1°C° 0.2 mm 5 m/S 726 mmHg 99%
16:00 -1°C° 0.2 mm 5 m/S 726 mmHg 98%
17:00 -1°C° 0.2 mm 5 m/S 725 mmHg 98%
18:00 -1°C° 0 mm 5 m/S 725 mmHg 97%
19:00 -2°C° 0 mm 4 m/S 725 mmHg 96%
20:00 -2°C° 0 mm 4 m/S 724 mmHg 96%
21:00 -2°C° 0.3 mm 4 m/S 724 mmHg 96%
22:00 -2°C° 0.3 mm 4 m/S 723 mmHg 97%
23:00 -1°C° 0.3 mm 5 m/S 723 mmHg 98%

31 Januar, Sonntag

Zeit Temperatur Niederschläge Wind Luftdruck Luftfeuchtigkeit
00:00 -3°C° 0.4 mm 6 m/S 723 mmHg 97%
01:00 -3°C° 0.4 mm 7 m/S 724 mmHg 97%
02:00 -5°C° 0.4 mm 8 m/S 724 mmHg 96%
03:00 -6°C° 0.4 mm 9 m/S 725 mmHg 94%
04:00 -8°C° 0.4 mm 9 m/S 725 mmHg 92%
05:00 -9°C° 0.4 mm 9 m/S 726 mmHg 90%
06:00 -9°C° 0 mm 9 m/S 727 mmHg 89%
07:00 -8°C° 0 mm 8 m/S 729 mmHg 89%
08:00 -9°C° 0 mm 7 m/S 730 mmHg 88%
09:00 -9°C° 0 mm 7 m/S 731 mmHg 87%
10:00 -9°C° 0 mm 7 m/S 732 mmHg 87%
11:00 -9°C° 0 mm 7 m/S 733 mmHg 86%
12:00 -9°C° 0 mm 7 m/S 734 mmHg 86%
13:00 -8°C° 0 mm 6 m/S 734 mmHg 86%
14:00 -8°C° 0 mm 6 m/S 735 mmHg 85%
15:00 -8°C° 0 mm 5 m/S 736 mmHg 87%
16:00 -8°C° 0 mm 4 m/S 736 mmHg 88%
17:00 -8°C° 0 mm 3 m/S 737 mmHg 90%
18:00 -9°C° 0 mm 3 m/S 737 mmHg 90%
19:00 -8°C° 0 mm 2 m/S 737 mmHg 90%
20:00 -7°C° 0 mm 1 m/S 738 mmHg 90%
21:00 -9°C° 0 mm 2 m/S 738 mmHg 89%
22:00 -9°C° 0 mm 2 m/S 738 mmHg 89%
23:00 -9°C° 0 mm 2 m/S 738 mmHg 88%

1 Februar, Montag

Zeit Temperatur Niederschläge Wind Luftdruck Luftfeuchtigkeit
00:00 -9°C° 0 mm 2 m/S 738 mmHg 88%
01:00 -9°C° 0 mm 2 m/S 738 mmHg 89%
02:00 -9°C° 0 mm 2 m/S 737 mmHg 89%
03:00 -10°C° 0 mm 3 m/S 737 mmHg 89%
04:00 -10°C° 0 mm 4 m/S 736 mmHg 88%
05:00 -10°C° 0 mm 4 m/S 735 mmHg 88%
06:00 -10°C° 0 mm 5 m/S 735 mmHg 88%
07:00 -10°C° 0 mm 5 m/S 735 mmHg 88%
08:00 -9°C° 0 mm 6 m/S 734 mmHg 88%
09:00 -9°C° 1 mm 7 m/S 733 mmHg 91%
10:00 -8°C° 1 mm 7 m/S 732 mmHg 93%
11:00 -7°C° 1 mm 8 m/S 731 mmHg 95%
12:00 -7°C° 1.6 mm 8 m/S 730 mmHg 95%
13:00 -6°C° 1.6 mm 8 m/S 729 mmHg 95%
14:00 -6°C° 1.6 mm 8 m/S 727 mmHg 95%
15:00 -4°C° 0.6 mm 7 m/S 727 mmHg 96%
16:00 -3°C° 0.6 mm 6 m/S 726 mmHg 97%
17:00 -1°C° 0.6 mm 5 m/S 726 mmHg 98%
18:00 -1°C° 0.4 mm 5 m/S 726 mmHg 99%
19:00 -1°C° 0.4 mm 4 m/S 726 mmHg 99%
20:00 -1°C° 0.4 mm 4 m/S 727 mmHg 99%
21:00 -2°C° 0.1 mm 5 m/S 727 mmHg 98%
22:00 -4°C° 0.1 mm 6 m/S 728 mmHg 96%
23:00 -6°C° 0.1 mm 7 m/S 729 mmHg 94%

2 Februar, Dienstag

Zeit Temperatur Niederschläge Wind Luftdruck Luftfeuchtigkeit
00:00 -6°C° 0.1 mm 7 m/S 730 mmHg 93%
01:00 -7°C° 0.1 mm 7 m/S 731 mmHg 92%
02:00 -8°C° 0.1 mm 7 m/S 731 mmHg 91%
03:00 -8°C° 0 mm 6 m/S 732 mmHg 91%
04:00 -9°C° 0 mm 6 m/S 733 mmHg 91%
05:00 -10°C° 0 mm 6 m/S 734 mmHg 90%
06:00 -10°C° 0 mm 6 m/S 735 mmHg 91%
07:00 -11°C° 0 mm 5 m/S 736 mmHg 91%
08:00 -11°C° 0 mm 5 m/S 738 mmHg 91%
09:00 -11°C° 0 mm 5 m/S 738 mmHg 91%
10:00 -11°C° 0 mm 5 m/S 739 mmHg 91%
11:00 -10°C° 0 mm 5 m/S 740 mmHg 91%
12:00 -10°C° 0 mm 5 m/S 741 mmHg 91%
13:00 -9°C° 0 mm 4 m/S 741 mmHg 90%
14:00 -8°C° 0 mm 4 m/S 741 mmHg 90%
15:00 -8°C° 0 mm 3 m/S 742 mmHg 90%
16:00 -9°C° 0 mm 3 m/S 742 mmHg 91%
17:00 -9°C° 0 mm 2 m/S 743 mmHg 91%
18:00 -9°C° 0 mm 2 m/S 743 mmHg 91%
19:00 -10°C° 0 mm 2 m/S 744 mmHg 91%
20:00 -10°C° 0 mm 2 m/S 744 mmHg 91%
21:00 -10°C° 0 mm 2 m/S 744 mmHg 91%
22:00 -12°C° 0 mm 2 m/S 744 mmHg 90%
23:00 -12°C° 0 mm 2 m/S 744 mmHg 89%
Mehr zeigen

Wir brauchen deine Erlaubnis

Meteoprog und unser Service Anbieter werden persönliche Daten aufbewahren, so wie Cookies, Geräte Bezeichnung oder ähnliche Technologien von deinem Gerät und Prozess, so wie Persönliche Daten Inhalte und Werbungen, genauso wie social Media und den Verkehr zu analysieren.

  • Aufbewahrung und/oder Zugang zu deiner Geräte Informationen.

    Cookies, Geräte Bezeichnung oder andere Informationen, können aufbewahrt oder Zugang zu deinem Gerät erhalten, für den Grund, der oben angegeben wird.

  • Personalisierte Werbung und Inhalte, Messungen, Einblick in das Publikum und Produkt Entwicklung.

    Werbungen und Inhalte können personalisiert werden, basierend auf ein Profil. Mehr Daten können besser personalisierte Werbungen und Inhalte hinzufügen. Werbung und Inhalte können gezeigt und gemessen werden. Einblicke über das Publikum, welche die Werbung gesehen haben und den Inhalt, können abgeleitet werden. So wie Daten können genutzt werden, um es zu verbessern oder die Benutzer Erfahrung zu verbessern das System und die Software.

Wenn du “Ich stimme zu” klickst, erlaubst du uns, die Cookies zu benutzen die Geräte Bezeichnung, den Web oder ähnliche Technologien zu benutzen. Deine Settings, können in deinem Gerät bei deinem Browser geändert werden.

Für den bestimmten Zweck, berechtigten Interessen beruhen darauf, mehr als auf den Inhalt. Du kannst mehr darüber in unseren Privaten und Cookie Politik lesen.